YAOGAN-43 02A

Last updated on Fri Oct 04 2024 00:02:03 GMT+0000 (Coordinated Universal Time)

1 60945U 24156A 24277.36141990 .00047943 00000+0 19898-2 0 9990 2 60945 34.9968 148.8369 0006873 298.4131 61.5891 15.22792859 4639
UTC large
Height (km)
Speed (km/s)
/
Latitude / Longitude
Inclination (degrees)
Orbital Period (minutes)
Azimuth
Elevation
Range (km)
Doppler Factor

Next 0 passes for location: London (51.5072 / 0.1276)

Sorry there are no passes over London.